Hourly Data Report for April 25, 2004

TORONTO CITY
ONTARIO

43°40'00.000" N
79°24'00.000" W
112.50 m
6158355
71508
XTO

Download Data

Hourly Data (April 2004)
Hourly Data Report for April 25, 2004
TIME
LST
Temp Definition
°C
Dew Point Definition
°C
Rel Hum Definition
%
Precip. Amount Definition
mm

Wind Dir Definition
10's deg

Wind Spd Definition
km/h
Visibility Definition
km
Stn Press Definition
kPa
Hmdx Definition


Wind Chill Definition


Weather Definition


00:00 8.7 -8.2 29   LegendMM LegendMM LegendMM 101.22     LegendNANA
01:00 7.3 -5.1 41   LegendMM LegendMM LegendMM 101.21     LegendNANA
02:00 5.7 -2.6 55   LegendMM LegendMM LegendMM 101.21     LegendNANA
03:00 5.3 -2.9 55   LegendMM LegendMM LegendMM 101.24     LegendNANA
04:00 5.2 -4.5 50   LegendMM LegendMM LegendMM 101.11     LegendNANA
05:00 4.2 -1.9 64   LegendMM LegendMM LegendMM 101.03     LegendNANA
06:00 4.1 -2.6 62   LegendMM LegendMM LegendMM 101.04     LegendNANA
07:00 4.0 -2.8 61   LegendMM LegendMM LegendMM 100.99     LegendNANA
08:00 4.4 -2.9 59   LegendMM LegendMM LegendMM 100.76     LegendNANA
09:00 4.4 -1.7 65   LegendMM LegendMM LegendMM 100.73     LegendNANA
10:00 3.6 -1.1 71   LegendMM LegendMM LegendMM 100.61     LegendNANA
11:00 3.5 -1.4 70   LegendMM LegendMM LegendMM 100.40     LegendNANA
12:00 2.7 0.1 83   LegendMM LegendMM LegendMM 100.30     LegendNANA
13:00 3.0 1.1 87   LegendMM LegendMM LegendMM 100.12     LegendNANA
14:00 3.2 2.1 92   LegendMM LegendMM LegendMM 99.97     LegendNANA
15:00 3.4 2.8 96   LegendMM LegendMM LegendMM 99.88     LegendNANA
16:00 4.3 3.8 97   LegendMM LegendMM LegendMM 99.79     LegendNANA
17:00 4.8 4.4 97   LegendMM LegendMM LegendMM 99.75     LegendNANA
18:00 5.5 5.2 98   LegendMM LegendMM LegendMM 99.70     LegendNANA
19:00 6.0 5.8 99   LegendMM LegendMM LegendMM 99.66     LegendNANA
20:00 6.4 6.2 99   LegendMM LegendMM LegendMM 99.59     LegendNANA
21:00 6.8 6.8 100   LegendMM LegendMM LegendMM 99.52     LegendNANA
22:00 7.6 7.6 100   LegendMM LegendMM LegendMM 99.49     LegendNANA
23:00 7.9 7.9 100   LegendMM LegendMM LegendMM 99.59     LegendNANA

Notes on Data Quality.

Legend

  • E = Estimated
  • M = Missing
  • NA = Not Available*
  • [empty] = Indicates an unobserved value
Date modified: